Elyria, OH

8:15 AM EST on February 25, 2017 (GMT -0500)
Lorain County Regional

Weather History for KLPR - March, 2014

Change the Weather History Date:

Sunday, March 9, 2014

  Actual Average (KCLE) Record (KCLE)
Temperature  
Mean Temperature 28 °F -  
Max Temperature 39 °F 44 °F 73 °F (1878)
Min Temperature 17 °F 25 °F -5 °F (1984)
Degree Days  
Heating Degree Days 37    
Moisture  
Dew Point 21 °F    
Average Humidity 68    
Maximum Humidity 85    
Minimum Humidity 50    
Precipitation  
Precipitation 0.00 in - - ()
Sea Level Pressure  
Sea Level Pressure 30.13 in    
Wind  
Wind Speed 7 mph (WSW)    
Max Wind Speed 20 mph    
Max Gust Speed -    
Visibility 8 miles    
Events      
Averages and records for this station are not official NWS values.
T = Trace of Precipitation, MM = Missing Value Source: NWS Daily Summary

Daily Weather History Graph

Daily Weather History Graph

Search for Another Location

Airport or City:

Trip Planner

Search our weather history database for the weather conditions in past years. The results will help you decide how hot, cold, wet, or windy it might be!

Date:

Astronomy

Mar. 09, 2014 Rise Set
Actual Time 7:50 AM EDT 7:28 PM EDT
Civil Twilight 7:22 AM EDT 7:56 PM EDT
Nautical Twilight 6:50 AM EDT 8:28 PM EDT
Astronomical Twilight 6:18 AM EDT 9:00 PM EDT
Moon 1:17 PM EDT (3/9) 3:17 AM EDT (3/9)
Length of Visible Light 12h 33m
Length of Day
11h 38m
First Quarter, 61% of the Moon is Illuminated
Mar 9
First Quarter
Mar 16
Full
Mar 23
Last Quarter
Mar 30
New
Apr 7
First Quarter

Hourly Weather History & Observations

Time (EDT) Temp. Windchill Dew Point Humidity Pressure Visibility Wind Dir Wind Speed Gust Speed Precip Events Conditions
12:53 AM 26.1 °F 21.9 °F 19.0 °F 75% 30.19 in 10.0 mi NNW 3.5 mph - N/A   Overcast
1:27 AM 25.0 °F - 18.0 °F 75% 30.16 in 10.0 mi Calm Calm - N/A   Partly Cloudy
1:53 AM 24.1 °F - 18.0 °F 77% 30.20 in 10.0 mi Calm Calm - N/A   Clear
3:53 AM 19.9 °F 14.9 °F 16.0 °F 85% 30.20 in 5.0 mi WSW 3.5 mph - N/A   Clear
4:53 AM 17.1 °F 8.7 °F 12.9 °F 84% 30.20 in 4.0 mi WSW 5.8 mph - N/A   Clear
5:53 AM 19.0 °F 11.1 °F 15.1 °F 85% 30.19 in 6.0 mi SW 5.8 mph - N/A   Clear
6:53 AM 19.0 °F 10.0 °F 15.1 °F 85% 30.22 in 4.0 mi SW 6.9 mph - N/A   Partly Cloudy
7:53 AM 19.0 °F 11.1 °F 15.1 °F 85% 30.24 in 4.0 mi WSW 5.8 mph - N/A   Clear
8:53 AM 21.9 °F 13.4 °F 17.1 °F 82% 30.25 in 4.0 mi West 6.9 mph - N/A   Haze
9:53 AM 26.1 °F 17.6 °F 19.9 °F 78% 30.27 in 7.0 mi NW 8.1 mph - N/A   Clear
10:53 AM 28.9 °F 21.1 °F 18.0 °F 64% 30.26 in 10.0 mi WNW 8.1 mph - N/A   Clear
11:53 AM 30.9 °F 22.8 °F 21.0 °F 67% 30.24 in 9.0 mi WSW 9.2 mph - N/A   Clear
12:53 PM 33.1 °F 24.9 °F 21.9 °F 64% 30.21 in 9.0 mi WSW 10.4 mph - N/A   Clear
1:53 PM 36.0 °F 28.0 °F 21.9 °F 57% 30.18 in 10.0 mi WSW 11.5 mph - N/A   Clear
2:53 PM 37.9 °F 29.6 °F 23.0 °F 55% 30.15 in 10.0 mi WSW 13.8 mph - N/A   Clear
3:53 PM 39.0 °F 31.4 °F 21.9 °F 50% 30.12 in 10.0 mi West 12.7 mph - N/A   Clear
4:53 PM 39.0 °F 31.4 °F 21.9 °F 50% 30.11 in 10.0 mi WSW 12.7 mph - N/A   Clear
5:53 PM 39.0 °F 31.0 °F 23.0 °F 53% 30.06 in 10.0 mi West 13.8 mph - N/A   Clear
6:53 PM 37.9 °F 32.1 °F 24.1 °F 57% 30.06 in 10.0 mi WSW 8.1 mph - N/A   Clear
7:53 PM 37.0 °F 29.8 °F 25.0 °F 62% 30.02 in 10.0 mi SW 10.4 mph - N/A   Clear
8:53 PM 37.0 °F 29.8 °F 26.1 °F 65% 30.00 in 10.0 mi SW 10.4 mph - N/A   Clear
9:53 PM 37.0 °F 29.8 °F 26.1 °F 65% 29.97 in 10.0 mi SW 10.4 mph - N/A   Clear
10:53 PM 37.9 °F 30.5 °F 27.0 °F 65% 29.97 in 10.0 mi WSW 11.5 mph - N/A   Clear
11:53 PM 39.0 °F 29.9 °F 26.1 °F 60% 29.93 in 10.0 mi WSW 17.3 mph - N/A   Clear
12:53 AM 39.9 °F 30.5 °F 25.0 °F 55% 29.88 in 10.0 mi SW 19.6 mph - N/A   Clear